THORAD AGENA D DEB, 5690

Orbit data source: Space-Track

THORAD AGENA D DEB, 5690 is space debris in SSO originally from a launch on Wed, 08 Apr 1970 UTC launched from the Air Force Western Test Range (AFWTR). Debris objects in space refer to the collection of defunct objects orbiting the Earth. Examples of debris include non-operational satellites, rocket bodies, and fragments generated from explosions, collisions, or faulty payload assembly.

Loading next visibility...
Identifier
5690, 1970-025LV
Orbit
SSO
Country
Flag of USUS
Related business
Manufacturer
Unknown
Mission
Spacecraft
Bus & Motor
Unknown
Mass
Unknown
Launch date (UTC)
1970-04-08 (56 years ago)
Launch vehicle
Unknown
Launch site
Air Force Western Test Range (AFWTR)
Object type
Payload
Rocket body
Debris
Shape & HBR
Unknown shape, 0.1 m
Radar Cross Section
Small (<0.1 m²)

Expand to show TLE details & history
Last TLE update: 21 hours ago

TLE from 21 hours ago
0 THORAD AGENA D DEB
1 05690U 70025LV  25352.49618352  .00000100  00000-0  22335-3 0  9998
2 05690 100.1969 358.2567 0049169 159.5034 354.3070 13.51572729741972
Epoch: 2025-12-18T11:54Z
TLE epoch observation values (Epoch: 2025-12-18T11:54:30.256Z)
Latitude
25.83385°
Longitude
-82.75019°
Altitude
1,033.055 km
Speed
7.355 km/s
True Right ascension
12h 12m 54s
True Declination
25° 42' 15"
Sunlit
Object was in daylight at epoch
Visualization orbit readout
Latitude
Unknown
Longitude
Unknown
Altitude
Unknown
Speed
Unknown
Apparent Right ascension
Unknown
Apparent Declination
Unknown
Sunlit
N/A
Visualization observer readout
Local Sidereal Time
07:32:28
Azimuth
Unknown
Elevation
Unknown
Doppler factor
Unknown
Orbital elements
Apogee altitude
1,100.394 km
Perigee altitude
1,027.212 km
Semi-major axis
7,441.94 km
Eccentricity
0.00492
Inclination
100.1969°
RAAN
358.2567°
Arg. of periapsis
159.5034°
True anomaly
354.25076°
Mean anomaly
354.307°
Eccentric anomaly
354.27892°
Mean motion
3.38076 °/min
Orbital period
106.49 mins
BSTAR
0.00022335
Loading maneuver chart data...
Computing Atmospheric mass density...

Documentation

Showing up to 5 results
|